User: anonymous   Login
Location: Arapaho Elementary School
(32.9607°N, 96.7625°W)
Time: 07:59:05
(UTC+00:00)
Language:

Cosmos 1812 - Orbit

View from above orbital plane
View from above orbital plane
View from above satellite
View from above satellite

Ground track
Ground track

The orbit data is extracted from the following two-line orbital elements,

1 17295U 87003A   22148.77802119  .00004700  00000-0  23249-3 0  9998
2 17295  82.5121 164.9496 0003050  26.7999 333.3392 15.17589995932317
Epoch (UTC): 28 May 2022 18:40:21
Eccentricity: 0.0003050
inclination: 82.5121°
perigee height: 511 km
apogee height: 515 km
right ascension of ascending node: 164.9496°
argument of perigee: 26.7999°
revolutions per day: 15.17589995
mean anomaly at epoch: 333.3392°
orbit number at epoch: 93231

The dashed part of the orbit path shows where the satellite is in the earth's shadow,  

DLR